Showing default

YUXING-3 06, 68199

Orbit data source: Space-Track

YUXING-3 06, 68199 is a Chinese payload satellite in SSO that was launched on Mon, 16 Mar 2026 UTC via a KUAIZHOU-11 launch vehicle from the Jiuquan Satellite Launch Center, China (JSC). Payload-class satellites include a variety of spacecraft equipped with specific instruments for various scientific and technological missions. These include communications satellites like Starlink; space stations such as the ISS; scientific satellites like the Hubble; Earth observation satellites from companies like Planet Labs, Umbra, and HawkEye 360; GPS; miniature CubeSats for education and research; and military/defense satellites.

Loading next visibility...
Identifier
68199, 2026-052B
Orbit
SSO
Country
Flag of CNCN / PRC
Related business
None
Manufacturer
Unknown
Mission
Operational spacecraft
Bus & Motor
Unknown
Mass
Unknown
Launch date (UTC)
2026-03-16 (3 months ago)
Launch vehicle
KUAIZHOU-11
Launch site
Jiuquan Satellite Launch Center, China (JSC)
Object type
Payload
Rocket body
Debris
Shape & HBR
Unknown shape, 1.1 m
Radar Cross Section
Medium (>0.1 m² and <1 m²)

Expand to show TLE details & history
Last TLE update: 12 hours ago

TLE from 12 hours ago
0 YUXING-3 06
1 68199U 26052B   26171.47564044  .00003763  00000-0  22967-3 0  9997
2 68199  97.5329 246.2070 0011057 300.8145  59.1996 15.10878363 14541
Epoch: 2026-06-20T11:24Z
TLE epoch observation values (Epoch: 2026-06-20T11:24:55.334Z)
Latitude
-0°
Longitude
166.28672°
Altitude
532.686 km
Speed
7.599 km/s
True Right ascension
16h 24m 49s
True Declination
0° 00' 00"
Sunlit
Object was in full shadow at epoch
Visualization orbit readout
Latitude
Unknown
Longitude
Unknown
Altitude
Unknown
Speed
Unknown
Apparent Right ascension
Unknown
Apparent Declination
Unknown
Sunlit
N/A
Visualization observer readout
Local Sidereal Time
10:19:46
Azimuth
Unknown
Elevation
Unknown
Doppler factor
Unknown
Orbital elements
Apogee altitude
538.142 km
Perigee altitude
522.865 km
Semi-major axis
6,908.64 km
Eccentricity
0.00111
Inclination
97.5329°
RAAN
246.207°
Arg. of periapsis
300.8145°
True anomaly
59.30851°
Mean anomaly
59.1996°
Eccentric anomaly
59.25405°
Mean motion
3.77967 °/min
Orbital period
95.25 mins
BSTAR
0.00022967
Loading maneuver chart data...
Computing Atmospheric mass density...
Loading historical data...
Loading historical data...
Loading historical data...
Loading historical data...
Loading historical data...
Loading historical data...
Loading historical data...

Documentation

Showing up to 5 results
|